owner,sensor,date,latitude,longitude,vertical_datum,sea_water_practical_salinity,qcFlag 
SCCF RECON,ioos:station:SCCF:16:1,2009-09-01T00:00:00Z,26.4345,-81.9647,2.319,31.23,1111122 
SCCF RECON,ioos:station:SCCF:16:1,2009-09-01T01:00:00Z,26.4345,-81.9647,2.446,32.25,1111122 
SCCF RECON,ioos:station:SCCF:16:1,2009-09-01T02:00:00Z,26.4345,-81.9647,2.55,34.31,1111122 
SCCF RECON,ioos:station:SCCF:16:1,2009-09-01T03:00:00Z,26.4345,-81.9647,2.639,34.35,1111122 
SCCF RECON,ioos:station:SCCF:16:1,2009-09-01T04:00:00Z,26.4345,-81.9647,2.663,34.56,1111122 
SCCF RECON,ioos:station:SCCF:16:1,2009-09-01T05:00:00Z,26.4345,-81.9647,2.603,34.7,1111122 
SCCF RECON,ioos:station:SCCF:16:1,2009-09-01T06:00:00Z,26.4345,-81.9647,2.611,34.72,1111122 
SCCF RECON,ioos:station:SCCF:16:1,2009-09-01T07:00:00Z,26.4345,-81.9647,2.534,34.91,1111122 
SCCF RECON,ioos:station:SCCF:16:1,2009-09-01T08:00:00Z,26.4345,-81.9647,2.438,34.91,1111122 
SCCF RECON,ioos:station:SCCF:16:1,2009-09-01T09:00:00Z,26.4345,-81.9647,2.464,34.82,1111122 
SCCF RECON,ioos:station:SCCF:16:1,2009-09-01T10:00:00Z,26.4345,-81.9647,2.453,34.67,1111122 
SCCF RECON,ioos:station:SCCF:16:1,2009-09-01T11:00:00Z,26.4345,-81.9647,2.547,33.89,1111122 
SCCF RECON,ioos:station:SCCF:16:1,2009-09-01T12:00:00Z,26.4345,-81.9647,2.629,33.93,1111122 
SCCF RECON,ioos:station:SCCF:16:1,2009-09-01T13:00:00Z,26.4345,-81.9647,2.733,34.12,1111122 
SCCF RECON,ioos:station:SCCF:16:1,2009-09-01T14:00:00Z,26.4345,-81.9647,2.806,34.35,1111122 
SCCF RECON,ioos:station:SCCF:16:1,2009-09-01T15:00:00Z,26.4345,-81.9647,2.87,34.65,1111122 
SCCF RECON,ioos:station:SCCF:16:1,2009-09-01T17:00:00Z,26.4345,-81.9647,2.748,34.53,1111122 
SCCF RECON,ioos:station:SCCF:16:1,2009-09-01T18:00:00Z,26.4345,-81.9647,2.586,34.68,1111122 
SCCF RECON,ioos:station:SCCF:16:1,2009-09-01T19:00:00Z,26.4345,-81.9647,2.454,35.01,1111122 
SCCF RECON,ioos:station:SCCF:16:1,2009-09-01T20:00:00Z,26.4345,-81.9647,2.248,34.51,1111122 
SCCF RECON,ioos:station:SCCF:16:1,2009-09-01T21:00:00Z,26.4345,-81.9647,2.124,34.01,1111122 
SCCF RECON,ioos:station:SCCF:16:1,2009-09-01T22:00:00Z,26.4345,-81.9647,2.06,32.92,1111122 
SCCF RECON,ioos:station:SCCF:16:1,2009-09-01T23:00:00Z,26.4345,-81.9647,2.105,31.83,1111122 
SCCF RECON,ioos:station:SCCF:16:1,2009-09-02T00:00:00Z,26.4345,-81.9647,2.295,31.35,1111122 
SCCF RECON,ioos:station:SCCF:16:1,2009-09-02T01:00:00Z,26.4345,-81.9647,2.416,32.48,1111122 
SCCF RECON,ioos:station:SCCF:16:1,2009-09-02T02:00:00Z,26.4345,-81.9647,2.52,33.15,1111122 
SCCF RECON,ioos:station:SCCF:16:1,2009-09-02T03:00:00Z,26.4345,-81.9647,2.665,34.01,1111122 
SCCF RECON,ioos:station:SCCF:16:1,2009-09-02T04:00:00Z,26.4345,-81.9647,2.766,34.42,1111122 
SCCF RECON,ioos:station:SCCF:16:1,2009-09-02T05:00:00Z,26.4345,-81.9647,2.739,34.62,1111122 
SCCF RECON,ioos:station:SCCF:16:1,2009-09-02T06:00:00Z,26.4345,-81.9647,2.667,34.78,1111122 
SCCF RECON,ioos:station:SCCF:16:1,2009-09-02T07:00:00Z,26.4345,-81.9647,2.588,34.81,1111122 
SCCF RECON,ioos:station:SCCF:16:1,2009-09-02T08:00:00Z,26.4345,-81.9647,2.502,34.81,1111122 
SCCF RECON,ioos:station:SCCF:16:1,2009-09-02T09:00:00Z,26.4345,-81.9647,2.429,33.84,1111122 
SCCF RECON,ioos:station:SCCF:16:1,2009-09-02T10:00:00Z,26.4345,-81.9647,2.504,33.79,1111122 
SCCF RECON,ioos:station:SCCF:16:1,2009-09-02T11:00:00Z,26.4345,-81.9647,2.516,33.8,1111122 
SCCF RECON,ioos:station:SCCF:16:1,2009-09-02T12:00:00Z,26.4345,-81.9647,2.617,33.79,1111122 
SCCF RECON,ioos:station:SCCF:16:1,2009-09-02T13:00:00Z,26.4345,-81.9647,2.716,34.07,1111122 
SCCF RECON,ioos:station:SCCF:16:1,2009-09-02T14:00:00Z,26.4345,-81.9647,2.805,34.49,1111122 
SCCF RECON,ioos:station:SCCF:16:1,2009-09-02T15:00:00Z,26.4345,-81.9647,2.88,34.74,1111122 
SCCF RECON,ioos:station:SCCF:16:1,2009-09-02T16:00:00Z,26.4345,-81.9647,2.916,34.81,1111122 
SCCF RECON,ioos:station:SCCF:16:1,2009-09-02T17:00:00Z,26.4345,-81.9647,2.844,34.65,1111122 
SCCF RECON,ioos:station:SCCF:16:1,2009-09-02T18:00:00Z,26.4345,-81.9647,2.679,34.67,1111122 
SCCF RECON,ioos:station:SCCF:16:1,2009-09-02T19:00:00Z,26.4345,-81.9647,2.54,34.69,1111122 
SCCF RECON,ioos:station:SCCF:16:1,2009-09-02T20:00:00Z,26.4345,-81.9647,2.377,34.68,1111122 
SCCF RECON,ioos:station:SCCF:16:1,2009-09-02T21:00:00Z,26.4345,-81.9647,2.198,34.2,1111122 
SCCF RECON,ioos:station:SCCF:16:1,2009-09-02T22:00:00Z,26.4345,-81.9647,2.096,33.62,1111122 
SCCF RECON,ioos:station:SCCF:16:1,2009-09-02T23:00:00Z,26.4345,-81.9647,2.106,32.43,1111122 
SCCF RECON,ioos:station:SCCF:16:1,2009-09-03T00:00:00Z,26.4345,-81.9647,2.272,31.72,1111122 
SCCF RECON,ioos:station:SCCF:16:1,2009-09-03T01:00:00Z,26.4345,-81.9647,2.468,31.95,1111122 
SCCF RECON,ioos:station:SCCF:16:1,2009-09-03T02:00:00Z,26.4345,-81.9647,2.575,32.76,1111122 
SCCF RECON,ioos:station:SCCF:16:1,2009-09-03T03:00:00Z,26.4345,-81.9647,2.638,33.79,1111122 
SCCF RECON,ioos:station:SCCF:16:1,2009-09-03T04:00:00Z,26.4345,-81.9647,2.799,34.23,1111122 
SCCF RECON,ioos:station:SCCF:16:1,2009-09-03T05:00:00Z,26.4345,-81.9647,2.768,34.44,1111122 
SCCF RECON,ioos:station:SCCF:16:1,2009-09-03T06:00:00Z,26.4345,-81.9647,2.682,34.65,1111122 
SCCF RECON,ioos:station:SCCF:16:1,2009-09-03T07:00:00Z,26.4345,-81.9647,2.621,34.72,1111122 
SCCF RECON,ioos:station:SCCF:16:1,2009-09-03T08:00:00Z,26.4345,-81.9647,2.56,34.78,1111122 
SCCF RECON,ioos:station:SCCF:16:1,2009-09-03T09:00:00Z,26.4345,-81.9647,2.46,34.65,1111122 
SCCF RECON,ioos:station:SCCF:16:1,2009-09-03T10:00:00Z,26.4345,-81.9647,2.383,34.43,1111122 
SCCF RECON,ioos:station:SCCF:16:1,2009-09-03T11:00:00Z,26.4345,-81.9647,2.383,34.41,1111122 
SCCF RECON,ioos:station:SCCF:16:1,2009-09-03T12:00:00Z,26.4345,-81.9647,2.46,33.34,1111122 
SCCF RECON,ioos:station:SCCF:16:1,2009-09-03T13:00:00Z,26.4345,-81.9647,2.631,33.75,1111122 
SCCF RECON,ioos:station:SCCF:16:1,2009-09-03T14:00:00Z,26.4345,-81.9647,2.802,33.82,1111122 
SCCF RECON,ioos:station:SCCF:16:1,2009-09-03T15:00:00Z,26.4345,-81.9647,2.909,34.07,1111122 
SCCF RECON,ioos:station:SCCF:16:1,2009-09-03T16:00:00Z,26.4345,-81.9647,2.956,34.54,1111122 
SCCF RECON,ioos:station:SCCF:16:1,2009-09-03T17:00:00Z,26.4345,-81.9647,2.939,35.0,1111122 
SCCF RECON,ioos:station:SCCF:16:1,2009-09-03T18:00:00Z,26.4345,-81.9647,2.787,35.02,1111122 
SCCF RECON,ioos:station:SCCF:16:1,2009-09-03T19:00:00Z,26.4345,-81.9647,2.589,34.95,1111122 
SCCF RECON,ioos:station:SCCF:16:1,2009-09-03T20:00:00Z,26.4345,-81.9647,2.409,34.39,1111122 
SCCF RECON,ioos:station:SCCF:16:1,2009-09-03T21:00:00Z,26.4345,-81.9647,2.301,33.76,1111122 
SCCF RECON,ioos:station:SCCF:16:1,2009-09-03T22:00:00Z,26.4345,-81.9647,2.184,32.84,1111122 
SCCF RECON,ioos:station:SCCF:16:1,2009-09-03T23:00:00Z,26.4345,-81.9647,2.099,32.43,1111122 
SCCF RECON,ioos:station:SCCF:16:1,2009-09-04T00:00:00Z,26.4345,-81.9647,2.192,31.27,1111122 
SCCF RECON,ioos:station:SCCF:16:1,2009-09-04T01:00:00Z,26.4345,-81.9647,2.375,30.91,1111122 
SCCF RECON,ioos:station:SCCF:16:1,2009-09-04T02:00:00Z,26.4345,-81.9647,2.547,32.26,1111122 
SCCF RECON,ioos:station:SCCF:16:1,2009-09-04T03:00:00Z,26.4345,-81.9647,2.624,33.71,1111122 
SCCF RECON,ioos:station:SCCF:16:1,2009-09-04T04:00:00Z,26.4345,-81.9647,2.742,35.12,1111122 
SCCF RECON,ioos:station:SCCF:16:1,2009-09-04T05:00:00Z,26.4345,-81.9647,2.799,35.07,1111122 
SCCF RECON,ioos:station:SCCF:16:1,2009-09-04T06:00:00Z,26.4345,-81.9647,2.812,35.03,1111122 
SCCF RECON,ioos:station:SCCF:16:1,2009-09-04T07:00:00Z,26.4345,-81.9647,2.688,35.19,1111122 
SCCF RECON,ioos:station:SCCF:16:1,2009-09-04T08:00:00Z,26.4345,-81.9647,2.559,34.93,1111122 
SCCF RECON,ioos:station:SCCF:16:1,2009-09-04T09:00:00Z,26.4345,-81.9647,2.434,34.91,1111122 
SCCF RECON,ioos:station:SCCF:16:1,2009-09-04T10:00:00Z,26.4345,-81.9647,2.361,34.56,1111122 
SCCF RECON,ioos:station:SCCF:16:1,2009-09-04T11:00:00Z,26.4345,-81.9647,2.331,32.03,1111122 
SCCF RECON,ioos:station:SCCF:16:1,2009-09-04T12:00:00Z,26.4345,-81.9647,2.405,32.85,1111122 
SCCF RECON,ioos:station:SCCF:16:1,2009-09-04T13:00:00Z,26.4345,-81.9647,2.536,33.47,1111122 
SCCF RECON,ioos:station:SCCF:16:1,2009-09-04T14:00:00Z,26.4345,-81.9647,2.758,32.57,1111122 
SCCF RECON,ioos:station:SCCF:16:1,2009-09-04T15:00:00Z,26.4345,-81.9647,2.851,34.35,1111122 
SCCF RECON,ioos:station:SCCF:16:1,2009-09-04T16:00:00Z,26.4345,-81.9647,2.89,34.24,1111122 
SCCF RECON,ioos:station:SCCF:16:1,2009-09-04T17:00:00Z,26.4345,-81.9647,2.938,34.01,1111122 
SCCF RECON,ioos:station:SCCF:16:1,2009-09-04T18:00:00Z,26.4345,-81.9647,2.906,34.06,1111122 
SCCF RECON,ioos:station:SCCF:16:1,2009-09-04T19:00:00Z,26.4345,-81.9647,2.778,34.34,1111122 
SCCF RECON,ioos:station:SCCF:16:1,2009-09-04T20:00:00Z,26.4345,-81.9647,2.594,34.26,1111122 
SCCF RECON,ioos:station:SCCF:16:1,2009-09-04T21:00:00Z,26.4345,-81.9647,2.425,34.15,1111122 
SCCF RECON,ioos:station:SCCF:16:1,2009-09-04T22:00:00Z,26.4345,-81.9647,2.28,33.53,1111122 
SCCF RECON,ioos:station:SCCF:16:1,2009-09-04T23:00:00Z,26.4345,-81.9647,2.171,32.96,1111122 
SCCF RECON,ioos:station:SCCF:16:1,2009-09-05T00:00:00Z,26.4345,-81.9647,2.158,32.32,1111122 
SCCF RECON,ioos:station:SCCF:16:1,2009-09-05T01:00:00Z,26.4345,-81.9647,2.34,31.81,1111122 
SCCF RECON,ioos:station:SCCF:16:1,2009-09-05T02:00:00Z,26.4345,-81.9647,2.482,31.99,1111122 
SCCF RECON,ioos:station:SCCF:16:1,2009-09-05T03:00:00Z,26.4345,-81.9647,2.661,32.77,1111122 
SCCF RECON,ioos:station:SCCF:16:1,2009-09-05T04:00:00Z,26.4345,-81.9647,2.771,33.12,1111122 
SCCF RECON,ioos:station:SCCF:16:1,2009-09-05T05:00:00Z,26.4345,-81.9647,2.839,33.64,1111122 
SCCF RECON,ioos:station:SCCF:16:1,2009-09-05T06:00:00Z,26.4345,-81.9647,2.811,33.56,1111122 
SCCF RECON,ioos:station:SCCF:16:1,2009-09-05T07:00:00Z,26.4345,-81.9647,2.727,33.73,1111122 
SCCF RECON,ioos:station:SCCF:16:1,2009-09-05T08:00:00Z,26.4345,-81.9647,2.702,33.84,1111122 
SCCF RECON,ioos:station:SCCF:16:1,2009-09-05T09:00:00Z,26.4345,-81.9647,2.503,33.83,1111122 
SCCF RECON,ioos:station:SCCF:16:1,2009-09-05T10:00:00Z,26.4345,-81.9647,2.351,33.26,1111122 
SCCF RECON,ioos:station:SCCF:16:1,2009-09-05T11:00:00Z,26.4345,-81.9647,2.259,32.92,1111122 
SCCF RECON,ioos:station:SCCF:16:1,2009-09-05T12:00:00Z,26.4345,-81.9647,2.286,32.43,1111122 
SCCF RECON,ioos:station:SCCF:16:1,2009-09-05T13:00:00Z,26.4345,-81.9647,2.363,32.4,1111122 
SCCF RECON,ioos:station:SCCF:16:1,2009-09-05T14:00:00Z,26.4345,-81.9647,2.604,32.37,1111122 
SCCF RECON,ioos:station:SCCF:16:1,2009-09-05T15:00:00Z,26.4345,-81.9647,2.783,33.02,1111122 
SCCF RECON,ioos:station:SCCF:16:1,2009-09-05T16:00:00Z,26.4345,-81.9647,2.847,33.07,1111122 
SCCF RECON,ioos:station:SCCF:16:1,2009-09-05T17:00:00Z,26.4345,-81.9647,2.901,33.39,1111122 
SCCF RECON,ioos:station:SCCF:16:1,2009-09-05T18:00:00Z,26.4345,-81.9647,2.932,33.82,1111122 
SCCF RECON,ioos:station:SCCF:16:1,2009-09-05T19:00:00Z,26.4345,-81.9647,2.883,34.19,1111122 
SCCF RECON,ioos:station:SCCF:16:1,2009-09-05T20:00:00Z,26.4345,-81.9647,2.741,33.96,1111122 
SCCF RECON,ioos:station:SCCF:16:1,2009-09-05T21:00:00Z,26.4345,-81.9647,2.516,33.67,1111122 
SCCF RECON,ioos:station:SCCF:16:1,2009-09-05T22:00:00Z,26.4345,-81.9647,2.305,33.29,1111122 
SCCF RECON,ioos:station:SCCF:16:1,2009-09-05T23:00:00Z,26.4345,-81.9647,2.249,32.8,1111122 
SCCF RECON,ioos:station:SCCF:16:1,2009-09-06T00:00:00Z,26.4345,-81.9647,2.207,32.58,1111122 
SCCF RECON,ioos:station:SCCF:16:1,2009-09-06T01:00:00Z,26.4345,-81.9647,2.279,32.21,1111122 
SCCF RECON,ioos:station:SCCF:16:1,2009-09-06T02:00:00Z,26.4345,-81.9647,2.453,32.25,1111122 
SCCF RECON,ioos:station:SCCF:16:1,2009-09-06T03:00:00Z,26.4345,-81.9647,2.711,32.75,1111122 
SCCF RECON,ioos:station:SCCF:16:1,2009-09-06T04:00:00Z,26.4345,-81.9647,2.862,33.2,1111122 
SCCF RECON,ioos:station:SCCF:16:1,2009-09-06T05:00:00Z,26.4345,-81.9647,2.863,33.38,1111122 
SCCF RECON,ioos:station:SCCF:16:1,2009-09-06T06:00:00Z,26.4345,-81.9647,2.856,33.71,1111122 
SCCF RECON,ioos:station:SCCF:16:1,2009-09-06T07:00:00Z,26.4345,-81.9647,2.806,33.9,1111122 
SCCF RECON,ioos:station:SCCF:16:1,2009-09-06T08:00:00Z,26.4345,-81.9647,2.676,33.91,1111122 
SCCF RECON,ioos:station:SCCF:16:1,2009-09-06T09:00:00Z,26.4345,-81.9647,2.499,33.26,1111122 
SCCF RECON,ioos:station:SCCF:16:1,2009-09-06T10:00:00Z,26.4345,-81.9647,2.333,33.43,1111122 
SCCF RECON,ioos:station:SCCF:16:1,2009-09-06T11:00:00Z,26.4345,-81.9647,2.249,32.74,1111122 
SCCF RECON,ioos:station:SCCF:16:1,2009-09-06T12:00:00Z,26.4345,-81.9647,2.219,32.59,1111122 
SCCF RECON,ioos:station:SCCF:16:1,2009-09-06T13:00:00Z,26.4345,-81.9647,2.261,32.52,1111122 
SCCF RECON,ioos:station:SCCF:16:1,2009-09-06T14:00:00Z,26.4345,-81.9647,2.418,31.3,1111122 
SCCF RECON,ioos:station:SCCF:16:1,2009-09-06T15:00:00Z,26.4345,-81.9647,2.636,32.94,1111122 
SCCF RECON,ioos:station:SCCF:16:1,2009-09-06T16:00:00Z,26.4345,-81.9647,2.765,33.15,1111122 
SCCF RECON,ioos:station:SCCF:16:1,2009-09-06T17:00:00Z,26.4345,-81.9647,2.867,33.34,1111122 
SCCF RECON,ioos:station:SCCF:16:1,2009-09-06T18:00:00Z,26.4345,-81.9647,2.885,33.86,1111122 
SCCF RECON,ioos:station:SCCF:16:1,2009-09-06T19:00:00Z,26.4345,-81.9647,2.872,34.16,1111122 
SCCF RECON,ioos:station:SCCF:16:1,2009-09-06T20:00:00Z,26.4345,-81.9647,2.764,34.54,1111122 
SCCF RECON,ioos:station:SCCF:16:1,2009-09-06T21:00:00Z,26.4345,-81.9647,2.634,34.43,1111122 
SCCF RECON,ioos:station:SCCF:16:1,2009-09-06T22:00:00Z,26.4345,-81.9647,2.464,33.58,1111122 
SCCF RECON,ioos:station:SCCF:16:1,2009-09-06T23:00:00Z,26.4345,-81.9647,2.366,33.16,1111122 
SCCF RECON,ioos:station:SCCF:16:1,2009-09-07T00:00:00Z,26.4345,-81.9647,2.303,33.13,1111122 
SCCF RECON,ioos:station:SCCF:16:1,2009-09-07T01:00:00Z,26.4345,-81.9647,2.31,32.33,1111122 
SCCF RECON,ioos:station:SCCF:16:1,2009-09-07T02:00:00Z,26.4345,-81.9647,2.481,32.2,1111122 
SCCF RECON,ioos:station:SCCF:16:1,2009-09-07T03:00:00Z,26.4345,-81.9647,2.575,32.26,1111122 
SCCF RECON,ioos:station:SCCF:16:1,2009-09-07T04:00:00Z,26.4345,-81.9647,2.749,32.76,1111122 
SCCF RECON,ioos:station:SCCF:16:1,2009-09-07T05:00:00Z,26.4345,-81.9647,2.805,33.7,1111122 
SCCF RECON,ioos:station:SCCF:16:1,2009-09-07T06:00:00Z,26.4345,-81.9647,2.875,34.11,1111122 
SCCF RECON,ioos:station:SCCF:16:1,2009-09-07T07:00:00Z,26.4345,-81.9647,2.838,34.98,1111122 
SCCF RECON,ioos:station:SCCF:16:1,2009-09-07T08:00:00Z,26.4345,-81.9647,2.701,34.63,1111122 
SCCF RECON,ioos:station:SCCF:16:1,2009-09-07T09:00:00Z,26.4345,-81.9647,2.554,34.51,1111122 
SCCF RECON,ioos:station:SCCF:16:1,2009-09-07T10:00:00Z,26.4345,-81.9647,2.374,33.65,1111122 
SCCF RECON,ioos:station:SCCF:16:1,2009-09-07T11:00:00Z,26.4345,-81.9647,2.245,33.0,1111122 
SCCF RECON,ioos:station:SCCF:16:1,2009-09-07T12:00:00Z,26.4345,-81.9647,2.11,32.39,1111122 
SCCF RECON,ioos:station:SCCF:16:1,2009-09-07T13:00:00Z,26.4345,-81.9647,2.11,31.73,1111122 
SCCF RECON,ioos:station:SCCF:16:1,2009-09-07T14:00:00Z,26.4345,-81.9647,2.23,31.52,1111122 
SCCF RECON,ioos:station:SCCF:16:1,2009-09-07T15:00:00Z,26.4345,-81.9647,2.456,31.45,1111122 
SCCF RECON,ioos:station:SCCF:16:1,2009-09-07T16:00:00Z,26.4345,-81.9647,2.591,32.78,1111122 
SCCF RECON,ioos:station:SCCF:16:1,2009-09-07T17:00:00Z,26.4345,-81.9647,2.718,33.88,1111122 
SCCF RECON,ioos:station:SCCF:16:1,2009-09-07T18:00:00Z,26.4345,-81.9647,2.798,34.03,1111122 
SCCF RECON,ioos:station:SCCF:16:1,2009-09-07T19:00:00Z,26.4345,-81.9647,2.803,34.15,1111122 
SCCF RECON,ioos:station:SCCF:16:1,2009-09-07T20:00:00Z,26.4345,-81.9647,2.747,34.36,1111122 
SCCF RECON,ioos:station:SCCF:16:1,2009-09-07T21:00:00Z,26.4345,-81.9647,2.648,34.43,1111122 
SCCF RECON,ioos:station:SCCF:16:1,2009-09-07T22:00:00Z,26.4345,-81.9647,2.543,34.31,1111122 
SCCF RECON,ioos:station:SCCF:16:1,2009-09-07T23:00:00Z,26.4345,-81.9647,2.444,33.85,1111122 
SCCF RECON,ioos:station:SCCF:16:1,2009-09-08T00:00:00Z,26.4345,-81.9647,2.381,33.73,1111122 
SCCF RECON,ioos:station:SCCF:16:1,2009-09-08T01:00:00Z,26.4345,-81.9647,2.384,32.73,1111122 
SCCF RECON,ioos:station:SCCF:16:1,2009-09-08T02:00:00Z,26.4345,-81.9647,2.455,31.73,1111122 
SCCF RECON,ioos:station:SCCF:16:1,2009-09-08T03:00:00Z,26.4345,-81.9647,2.598,33.27,1111122 
SCCF RECON,ioos:station:SCCF:16:1,2009-09-08T04:00:00Z,26.4345,-81.9647,2.754,33.88,1111122 
SCCF RECON,ioos:station:SCCF:16:1,2009-09-08T05:00:00Z,26.4345,-81.9647,2.852,34.45,1111122 
SCCF RECON,ioos:station:SCCF:16:1,2009-09-08T06:00:00Z,26.4345,-81.9647,2.868,34.65,1111122 
SCCF RECON,ioos:station:SCCF:16:1,2009-09-08T07:00:00Z,26.4345,-81.9647,2.881,34.93,1111122 
SCCF RECON,ioos:station:SCCF:16:1,2009-09-08T08:00:00Z,26.4345,-81.9647,2.797,35.01,1111122 
SCCF RECON,ioos:station:SCCF:16:1,2009-09-08T09:00:00Z,26.4345,-81.9647,2.705,35.01,1111122 
SCCF RECON,ioos:station:SCCF:16:1,2009-09-08T10:00:00Z,26.4345,-81.9647,2.54,34.5,1111122 
SCCF RECON,ioos:station:SCCF:16:1,2009-09-08T11:00:00Z,26.4345,-81.9647,2.377,33.83,1111122 
SCCF RECON,ioos:station:SCCF:16:1,2009-09-08T12:00:00Z,26.4345,-81.9647,2.236,33.35,1111122 
SCCF RECON,ioos:station:SCCF:16:1,2009-09-08T13:00:00Z,26.4345,-81.9647,2.119,32.29,1111122 
SCCF RECON,ioos:station:SCCF:16:1,2009-09-08T14:00:00Z,26.4345,-81.9647,2.132,32.53,1111122 
SCCF RECON,ioos:station:SCCF:16:1,2009-09-08T15:00:00Z,26.4345,-81.9647,2.294,31.86,1111122 
SCCF RECON,ioos:station:SCCF:16:1,2009-09-08T16:00:00Z,26.4345,-81.9647,2.489,32.65,1111122 
SCCF RECON,ioos:station:SCCF:16:1,2009-09-08T17:00:00Z,26.4345,-81.9647,2.635,33.22,1111122 
SCCF RECON,ioos:station:SCCF:16:1,2009-09-08T18:00:00Z,26.4345,-81.9647,2.702,33.8,1111122 
SCCF RECON,ioos:station:SCCF:16:1,2009-09-08T19:00:00Z,26.4345,-81.9647,2.738,34.14,1111122 
SCCF RECON,ioos:station:SCCF:16:1,2009-09-08T20:00:00Z,26.4345,-81.9647,2.74,34.19,1111122 
SCCF RECON,ioos:station:SCCF:16:1,2009-09-08T21:00:00Z,26.4345,-81.9647,2.698,34.27,1111122 
SCCF RECON,ioos:station:SCCF:16:1,2009-09-08T22:00:00Z,26.4345,-81.9647,2.614,34.5,1111122 
SCCF RECON,ioos:station:SCCF:16:1,2009-09-08T23:00:00Z,26.4345,-81.9647,2.543,34.22,1111122 
SCCF RECON,ioos:station:SCCF:16:1,2009-09-09T00:00:00Z,26.4345,-81.9647,2.454,33.98,1111122 
SCCF RECON,ioos:station:SCCF:16:1,2009-09-09T01:00:00Z,26.4345,-81.9647,2.459,33.66,1111122 
SCCF RECON,ioos:station:SCCF:16:1,2009-09-09T02:00:00Z,26.4345,-81.9647,2.493,32.81,1111122 
SCCF RECON,ioos:station:SCCF:16:1,2009-09-09T03:00:00Z,26.4345,-81.9647,2.552,32.88,1111122 
SCCF RECON,ioos:station:SCCF:16:1,2009-09-09T04:00:00Z,26.4345,-81.9647,2.659,32.94,1111122 
SCCF RECON,ioos:station:SCCF:16:1,2009-09-09T05:00:00Z,26.4345,-81.9647,2.753,33.55,1111122 
SCCF RECON,ioos:station:SCCF:16:1,2009-09-09T06:00:00Z,26.4345,-81.9647,2.835,34.09,1111122 
SCCF RECON,ioos:station:SCCF:16:1,2009-09-09T07:00:00Z,26.4345,-81.9647,2.905,34.82,1111122 
SCCF RECON,ioos:station:SCCF:16:1,2009-09-09T08:00:00Z,26.4345,-81.9647,2.895,35.1,1111122 
SCCF RECON,ioos:station:SCCF:16:1,2009-09-09T09:00:00Z,26.4345,-81.9647,2.803,35.06,1111122 
SCCF RECON,ioos:station:SCCF:16:1,2009-09-09T10:00:00Z,26.4345,-81.9647,2.651,35.14,1111122 
SCCF RECON,ioos:station:SCCF:16:1,2009-09-09T11:00:00Z,26.4345,-81.9647,2.5,34.72,1111122 
SCCF RECON,ioos:station:SCCF:16:1,2009-09-09T12:00:00Z,26.4345,-81.9647,2.351,34.33,1111122 
SCCF RECON,ioos:station:SCCF:16:1,2009-09-09T13:00:00Z,26.4345,-81.9647,2.194,32.94,1111122 
SCCF RECON,ioos:station:SCCF:16:1,2009-09-09T14:00:00Z,26.4345,-81.9647,2.09,32.59,1111122 
SCCF RECON,ioos:station:SCCF:16:1,2009-09-09T15:00:00Z,26.4345,-81.9647,2.174,31.32,1111122 
SCCF RECON,ioos:station:SCCF:16:1,2009-09-09T16:00:00Z,26.4345,-81.9647,2.278,30.7,1111122 
SCCF RECON,ioos:station:SCCF:16:1,2009-09-09T17:00:00Z,26.4345,-81.9647,2.458,31.87,1111122 
SCCF RECON,ioos:station:SCCF:16:1,2009-09-09T18:00:00Z,26.4345,-81.9647,2.597,33.25,1111122 
SCCF RECON,ioos:station:SCCF:16:1,2009-09-09T19:00:00Z,26.4345,-81.9647,2.635,34.47,1111122 
SCCF RECON,ioos:station:SCCF:16:1,2009-09-09T20:00:00Z,26.4345,-81.9647,2.684,34.46,1111122 
SCCF RECON,ioos:station:SCCF:16:1,2009-09-09T21:00:00Z,26.4345,-81.9647,2.765,34.5,1111122 
SCCF RECON,ioos:station:SCCF:16:1,2009-09-09T22:00:00Z,26.4345,-81.9647,2.674,33.74,1111122 
SCCF RECON,ioos:station:SCCF:16:1,2009-09-09T23:00:00Z,26.4345,-81.9647,2.608,33.76,1111122 
SCCF RECON,ioos:station:SCCF:16:1,2009-09-10T00:00:00Z,26.4345,-81.9647,2.545,33.98,1111122 
SCCF RECON,ioos:station:SCCF:16:1,2009-09-10T01:00:00Z,26.4345,-81.9647,2.544,33.96,1111122 
SCCF RECON,ioos:station:SCCF:16:1,2009-09-10T02:00:00Z,26.4345,-81.9647,2.515,33.98,1111122 
SCCF RECON,ioos:station:SCCF:16:1,2009-09-10T03:00:00Z,26.4345,-81.9647,2.555,34.07,1111122 
SCCF RECON,ioos:station:SCCF:16:1,2009-09-10T04:00:00Z,26.4345,-81.9647,2.629,34.15,1111122 
SCCF RECON,ioos:station:SCCF:16:1,2009-09-10T05:00:00Z,26.4345,-81.9647,2.774,34.16,1111122 
SCCF RECON,ioos:station:SCCF:16:1,2009-09-10T06:00:00Z,26.4345,-81.9647,2.863,34.3,1111122 
SCCF RECON,ioos:station:SCCF:16:1,2009-09-10T07:00:00Z,26.4345,-81.9647,2.852,34.34,1111122 
SCCF RECON,ioos:station:SCCF:16:1,2009-09-10T08:00:00Z,26.4345,-81.9647,2.91,34.33,1111122 
SCCF RECON,ioos:station:SCCF:16:1,2009-09-10T09:00:00Z,26.4345,-81.9647,2.911,34.46,1111122 
SCCF RECON,ioos:station:SCCF:16:1,2009-09-10T10:00:00Z,26.4345,-81.9647,2.895,34.54,1111122 
SCCF RECON,ioos:station:SCCF:16:1,2009-09-10T11:00:00Z,26.4345,-81.9647,2.756,34.58,1111122 
SCCF RECON,ioos:station:SCCF:16:1,2009-09-10T12:00:00Z,26.4345,-81.9647,2.553,34.47,1111122 
SCCF RECON,ioos:station:SCCF:16:1,2009-09-10T13:00:00Z,26.4345,-81.9647,2.307,34.34,1111122 
SCCF RECON,ioos:station:SCCF:16:1,2009-09-10T14:00:00Z,26.4345,-81.9647,2.286,33.94,1111122 
SCCF RECON,ioos:station:SCCF:16:1,2009-09-10T15:00:00Z,26.4345,-81.9647,2.187,34.2,1111122 
SCCF RECON,ioos:station:SCCF:16:1,2009-09-10T16:00:00Z,26.4345,-81.9647,2.219,33.28,1111122 
SCCF RECON,ioos:station:SCCF:16:1,2009-09-10T17:00:00Z,26.4345,-81.9647,2.375,32.59,1111122 
SCCF RECON,ioos:station:SCCF:16:1,2009-09-10T18:00:00Z,26.4345,-81.9647,2.507,33.34,1111122 
SCCF RECON,ioos:station:SCCF:16:1,2009-09-10T19:00:00Z,26.4345,-81.9647,2.581,34.04,1111122 
SCCF RECON,ioos:station:SCCF:16:1,2009-09-10T20:00:00Z,26.4345,-81.9647,2.672,34.1,1111122 
SCCF RECON,ioos:station:SCCF:16:1,2009-09-10T21:00:00Z,26.4345,-81.9647,2.699,34.13,1111122 
SCCF RECON,ioos:station:SCCF:16:1,2009-09-10T22:00:00Z,26.4345,-81.9647,2.689,34.04,1111122 
SCCF RECON,ioos:station:SCCF:16:1,2009-09-10T23:00:00Z,26.4345,-81.9647,2.691,34.02,1111122 
SCCF RECON,ioos:station:SCCF:16:1,2009-09-11T00:00:00Z,26.4345,-81.9647,2.696,34.06,1111122 
SCCF RECON,ioos:station:SCCF:16:1,2009-09-11T01:00:00Z,26.4345,-81.9647,2.655,34.11,1111122 
SCCF RECON,ioos:station:SCCF:16:1,2009-09-11T02:00:00Z,26.4345,-81.9647,2.702,34.22,1111122 
SCCF RECON,ioos:station:SCCF:16:1,2009-09-11T03:00:00Z,26.4345,-81.9647,2.622,34.26,1111122 
SCCF RECON,ioos:station:SCCF:16:1,2009-09-11T04:00:00Z,26.4345,-81.9647,2.668,34.27,1111122 
SCCF RECON,ioos:station:SCCF:16:1,2009-09-11T05:00:00Z,26.4345,-81.9647,2.721,34.29,1111122 
SCCF RECON,ioos:station:SCCF:16:1,2009-09-11T06:00:00Z,26.4345,-81.9647,2.851,34.45,1111122 
SCCF RECON,ioos:station:SCCF:16:1,2009-09-11T07:00:00Z,26.4345,-81.9647,2.956,34.59,1111122 
SCCF RECON,ioos:station:SCCF:16:1,2009-09-11T08:00:00Z,26.4345,-81.9647,2.954,34.72,1111122 
SCCF RECON,ioos:station:SCCF:16:1,2009-09-11T09:00:00Z,26.4345,-81.9647,2.934,34.82,1111122 
SCCF RECON,ioos:station:SCCF:16:1,2009-09-11T10:00:00Z,26.4345,-81.9647,2.893,34.9,1111122 
SCCF RECON,ioos:station:SCCF:16:1,2009-09-11T11:00:00Z,26.4345,-81.9647,2.891,34.94,1111122 
SCCF RECON,ioos:station:SCCF:16:1,2009-09-11T12:00:00Z,26.4345,-81.9647,2.752,34.9,1111122 
SCCF RECON,ioos:station:SCCF:16:1,2009-09-11T13:00:00Z,26.4345,-81.9647,2.59,34.74,1111122 
SCCF RECON,ioos:station:SCCF:16:1,2009-09-11T14:00:00Z,26.4345,-81.9647,2.416,34.57,1111122 
SCCF RECON,ioos:station:SCCF:16:1,2009-09-11T15:00:00Z,26.4345,-81.9647,2.3,33.94,1111122 
SCCF RECON,ioos:station:SCCF:16:1,2009-09-11T16:00:00Z,26.4345,-81.9647,2.237,33.98,1111122 
SCCF RECON,ioos:station:SCCF:16:1,2009-09-11T17:00:00Z,26.4345,-81.9647,2.224,33.66,1111122 